Location: Ellingshausen
(50.5460°N, 10.4723°E)
Time: 12:19:31
(UTC+00:00)

Cosmos 676 Rocket - Pass Details

Date: 13 April 2026
Orbit: 750 x 779 km, 74.0° (Epoch: 19 May)

Event Time Altitude Azimuth Distance (km) Brightness Sun altitude
Rises 21:49:25 0° 341° (NNW) 3,273 8.6 -27.1°
Reaches altitude 10° 21:52:44 10° 2° (N) 2,338 7.3 -27.3°
Maximum altitude 21:56:04 17° 41° (NE) 1,914 6.3 -27.5°
Enters shadow 21:58:09 14° 68° (ENE) 2,085 6.2 -27.6°
